Wind_Speed
11 12 12 13 13 14 15 15 16 17 17 19 19 19 19 20 21 22 21 21 21 22 23 23 24 24 24 24 25 25 26 26 26 26 26 26 26 26
13 14 14 14 14 15 16 17 17 17 17 18 18 19 20 21 22 22 21 21 22 22 23 24 24 24 24 25 25 25 26 26 27 27 27 27 26 27
14 15 16 16 16 16 16 17 18 18 18 18 19 19 20 21 21 21 21 21 22 22 23 24 24 24 24 25 25 26 26 26 26 27 28 28 27 27
16 16 16 17 18 18 18 19 19 19 19 19 19 20 20 21 21 21 22 22 22 22 23 23 24 24 25 25 25 25 25 26 26 27 28 28 28 28
18 18 18 18 19 20 20 20 21 21 21 20 21 21 21 21 22 22 22 22 23 23 23 24 25 25 26 26 26 27 27 27 27 27 27 27 28 27
20 20 20 20 20 20 21 22 22 22 22 22 22 22 22 22 22 22 22 23 23 24 25 25 25 26 26 26 27 27 27 28 28 28 28 28 28 28
22 21 21 22 22 22 22 23 23 23 23 23 23 23 23 23 23 23 23 24 24 24 24 25 26 26 26 26 27 28 28 28 28 29 29 29 29 29
24 23 23 23 23 23 23 24 24 24 24 24 25 25 25 25 25 25 25 25 25 25 25 26 26 26 27 27 27 27 27 27 28 29 29 29 30 30
25 25 25 25 26 26 25 26 26 26 26 26 26 26 26 26 26 26 27 27 27 27 27 27 27 28 28 27 27 27 27 27 28 28 29 30 31 31
28 28 27 28 28 28 27 27 28 28 28 28 28 28 28 28 27 27 28 28 28 29 29 29 29 29 29 29 28 28 28 28 28 28 28 29 29 30
31 30 30 30 30 30 30 30 30 30 30 30 29 29 29 29 29 29 29 29 30 30 30 31 30 30 29 29 30 30 30 30 30 30 31 31 31 31
32 31 32 32 32 32 32 32 32 32 31 31 30 30 30 30 30 31 31 31 31 32 32 32 32 31 31 31 32 32 32 32 32 32 32 32 32 32
32 32 32 33 34 34 33 32 32 32 32 31 31 31 31 31 32 32 33 33 33 33 33 33 33 33 33 33 33 33 33 33 33 33 33 33 33 33
33 33 34 35 35 34 34 33 33 34 33 33 32 32 33 33 34 34 34 34 34 34 34 34 34 34 34 34 34 34 34 33 33 33 33 34 34 34
34 34 35 36 36 35 34 35 35 35 35 34 34 34 35 35 36 36 36 35 35 35 35 35 35 35 35 35 34 34 34 34 34 34 34 35 35 35
36 37 37 37 37 36 35 35 35 35 35 35 35 36 36 36 36 36 36 36 36 36 35 35 35 35 35 36 36 35 35 35 35 35 35 35 35 35
39 39 38 38 37 37 37 37 37 37 37 36 36 36 36 37 37 37 37 37 37 36 36 36 36 36 36 36 36 36 36 37 37 37 36 36 36 36
40 40 39 39 39 38 38 38 38 38 38 38 38 38 37 38 38 38 38 37 37 37 36 36 36 36 36 36 37 36 36 37 37 38 38 37 37 36
40 40 40 40 40 40 39 39 38 38 37 37 37 38 37 37 38 38 38 38 38 37 37 37 36 37 37 36 36 37 37 37 38 38 38 38 37 37
41 41 40 40 40 40 39 39 38 38 37 37 37 37 37 37 37 38 38 38 38 38 38 38 38 38 37 37 37 36 37 38 37 37 37 37 37 37
40 40 40 40 40 40 39 39 38 37 37 37 37 37 37 37 38 38 38 37 37 37 37 38 38 38 38 37 37 37 37 37 37 36 37 37 37 37
41 41 41 40 39 39 38 37 37 37 36 37 37 38 38 38 38 38 38 37 37 38 38 38 38 38 38 37 38 38 37 37 36 36 37 37 37 36
40 40 40 39 37 37 37 36 37 37 37 38 39 39 39 38 38 38 38 38 38 38 38 38 38 38 38 38 38 38 37 37 36 36 37 37 36 35
Wind_Direction
319 317 311 307 306 306 306 305 303 303 301 297 293 291 291 290 289 285 282 283 283 283 284 284 284 284 282 280 281 279 278 277 277 278 280 280 278 279
312 315 314 312 310 308 307 305 304 303 303 301 299 294 293 291 291 290 285 284 284 284 285 284 283 284 283 281 281 280 279 278 278 279 280 280 279 279
310 310 311 310 309 310 310 308 307 305 306 305 303 301 299 296 295 293 289 288 286 285 286 287 286 285 285 284 282 281 281 280 278 279 279 278 278 279
311 309 310 310 308 306 306 307 306 304 305 305 304 302 302 301 300 298 295 292 291 289 289 288 287 287 287 287 285 283 282 280 279 280 280 279 278 278
308 309 309 309 309 307 305 305 305 304 304 303 303 302 302 302 301 300 298 295 294 292 292 290 289 289 289 287 286 285 283 282 281 281 281 282 279 279
308 306 305 305 304 306 306 306 305 304 303 302 302 302 302 302 302 301 299 299 297 294 292 292 293 292 291 290 288 287 285 284 283 282 281 281 281 281
305 304 304 303 301 302 303 306 305 304 303 302 302 302 302 301 300 301 301 300 299 298 296 294 294 294 293 290 290 288 286 284 283 282 282 283 282 282
300 301 303 304 302 300 301 302 304 304 304 303 301 301 301 301 300 300 299 299 299 298 298 297 296 296 296 294 292 290 287 284 282 282 282 282 282 283
297 298 300 303 301 299 299 300 301 303 304 303 301 300 299 300 299 299 298 298 298 297 298 298 297 296 296 294 293 292 290 286 284 282 282 282 283 283
295 296 298 299 300 299 298 298 299 299 301 301 301 299 298 298 298 298 298 298 297 297 297 298 297 296 296 294 292 290 289 289 288 287 286 286 285 285
293 293 295 296 296 296 296 297 297 297 297 299 298 297 297 297 297 298 298 298 298 297 297 298 297 296 295 294 293 291 290 289 290 289 288 288 287 286
291 292 295 295 295 295 295 295 296 295 295 296 296 296 296 297 297 296 297 297 297 297 296 297 297 296 294 294 293 292 290 289 289 290 289 288 287 287
289 290 292 294 294 294 294 294 295 295 295 295 295 295 295 295 296 296 296 296 296 297 297 296 296 295 294 294 293 292 291 290 289 289 288 288 288 287
288 289 291 292 293 292 292 292 293 293 294 293 293 293 294 295 295 295 295 295 295 295 295 295 295 295 295 294 293 292 291 290 290 290 289 288 288 288
287 288 291 292 292 292 292 291 292 292 292 292 292 292 293 294 294 294 294 294 294 295 295 295 295 295 295 294 293 292 291 290 289 289 289 289 289 288
285 287 289 290 291 291 292 292 292 291 291 291 291 292 292 293 293 293 293 293 293 293 294 294 294 294 294 294 293 292 291 289 289 288 288 288 288 288
284 285 287 288 288 289 290 290 290 290 290 291 291 292 293 292 293 293 293 294 294 294 294 294 294 294 294 294 294 293 292 290 289 289 288 288 288 288
282 283 284 286 286 286 287 288 289 289 290 290 291 292 293 294 294 293 294 295 295 295 295 295 295 294 295 294 294 294 292 291 290 289 289 288 288 288
280 282 282 284 284 284 285 287 288 289 289 290 292 293 293 294 294 294 294 294 294 294 294 295 295 295 295 293 293 293 293 293 292 291 290 289 288 287
279 281 282 283 283 285 285 286 287 287 289 291 292 293 293 294 295 295 295 294 294 294 294 295 295 295 295 295 294 293 293 293 292 291 290 290 289 288
279 281 283 283 284 285 285 285 285 287 289 290 292 293 293 294 295 296 295 294 294 294 295 295 296 295 295 295 294 293 293 293 293 292 292 291 289 288
281 281 282 282 283 284 285 284 285 286 287 289 291 292 293 293 294 295 295 295 295 295 295 295 295 295 294 294 294 293 293 293 293 293 293 292 291 290
280 281 282 283 283 284 283 283 283 285 286 288 290 291 292 293 293 293 293 294 294 295 295 294 294 295 294 294 293 293 294 294 294 294 294 293 292 290
Height
5872 5871 5869 5868 5867 5866 5865 5863 5863 5861 5860 5857 5856 5855 5854 5853 5852 5850 5849 5849 5848 5847 5846 5845 5844 5843 5843 5842 5841 5840 5839 5839 5838 5837 5837 5836 5835 5835
5869 5868 5867 5865 5864 5862 5861 5860 5858 5857 5855 5853 5852 5850 5849 5847 5845 5843 5843 5843 5842 5841 5840 5838 5838 5837 5836 5835 5834 5833 5833 5832 5831 5831 5830 5829 5829 5828
5866 5865 5863 5862 5861 5859 5858 5856 5854 5853 5851 5849 5847 5846 5844 5843 5841 5839 5838 5837 5836 5835 5834 5833 5832 5831 5830 5828 5827 5827 5826 5825 5824 5824 5823 5822 5821 5820
5863 5861 5860 5859 5857 5855 5854 5852 5850 5848 5847 5845 5843 5841 5840 5838 5836 5835 5833 5832 5830 5828 5827 5827 5825 5824 5823 5822 5821 5820 5819 5818 5817 5816 5815 5814 5813 5813
5859 5858 5856 5854 5853 5851 5849 5847 5846 5844 5842 5840 5838 5837 5835 5833 5831 5830 5828 5826 5824 5823 5822 5820 5819 5818 5816 5815 5814 5813 5811 5811 5810 5809 5807 5806 5806 5805
5855 5853 5852 5850 5848 5846 5845 5843 5841 5839 5837 5835 5833 5831 5829 5827 5826 5824 5822 5820 5819 5817 5815 5814 5812 5811 5809 5808 5807 5805 5804 5803 5801 5800 5799 5799 5798 5797
5850 5848 5847 5845 5843 5841 5839 5838 5836 5834 5832 5830 5828 5826 5824 5822 5820 5818 5816 5814 5813 5811 5809 5807 5806 5804 5802 5800 5799 5797 5796 5794 5794 5793 5792 5791 5790 5789
5845 5843 5841 5839 5837 5836 5834 5832 5830 5828 5826 5824 5822 5820 5818 5816 5814 5812 5810 5808 5807 5805 5803 5801 5799 5797 5794 5792 5791 5789 5787 5786 5785 5784 5783 5782 5781 5780
5839 5837 5835 5833 5831 5830 5828 5826 5824 5822 5820 5818 5815 5813 5811 5809 5807 5805 5803 5801 5800 5797 5795 5793 5791 5789 5787 5785 5783 5781 5780 5778 5777 5775 5774 5773 5771 5770
5832 5830 5829 5826 5824 5823 5821 5819 5817 5815 5813 5811 5809 5806 5804 5802 5800 5798 5796 5794 5792 5790 5788 5786 5784 5781 5779 5777 5775 5773 5772 5770 5768 5767 5765 5763 5762 5761
5825 5823 5821 5819 5817 5815 5814 5812 5810 5808 5805 5804 5801 5799 5797 5795 5793 5791 5788 5786 5784 5782 5780 5778 5775 5773 5771 5769 5767 5765 5763 5761 5760 5758 5756 5754 5753 5752
5817 5815 5813 5811 5810 5807 5805 5803 5802 5800 5797 5795 5793 5791 5789 5787 5785 5783 5780 5778 5776 5774 5771 5769 5766 5764 5762 5760 5758 5756 5754 5752 5750 5749 5747 5745 5743 5742
5809 5807 5805 5803 5801 5799 5797 5795 5793 5791 5789 5787 5785 5783 5781 5779 5776 5774 5772 5769 5767 5764 5762 5760 5757 5755 5753 5751 5748 5746 5744 5743 5741 5739 5737 5736 5734 5732
5800 5799 5797 5794 5792 5790 5788 5786 5784 5782 5780 5778 5776 5774 5772 5770 5767 5765 5763 5760 5757 5755 5752 5749 5747 5745 5743 5740 5738 5736 5734 5732 5730 5729 5727 5725 5723 5722
5791 5789 5787 5786 5783 5781 5779 5777 5775 5773 5771 5769 5767 5765 5762 5760 5758 5755 5753 5750 5748 5745 5742 5739 5737 5734 5732 5730 5728 5726 5724 5722 5720 5718 5716 5714 5712 5711
5781 5780 5778 5776 5774 5772 5770 5768 5766 5764 5761 5759 5757 5755 5752 5750 5748 5745 5743 5740 5738 5735 5732 5729 5727 5724 5722 5719 5717 5715 5713 5711 5709 5707 5705 5703 5701 5699
5770 5769 5767 5766 5764 5762 5760 5758 5756 5754 5751 5749 5746 5744 5742 5739 5737 5735 5732 5730 5727 5725 5722 5719 5716 5714 5711 5709 5706 5704 5702 5700 5697 5695 5694 5692 5690 5688
5758 5758 5757 5755 5753 5752 5750 5748 5746 5743 5741 5738 5736 5733 5731 5729 5727 5724 5722 5719 5716 5714 5711 5709 5706 5703 5701 5698 5695 5692 5690 5688 5686 5684 5682 5680 5678 5676
5747 5746 5745 5743 5742 5740 5739 5737 5735 5732 5730 5728 5725 5723 5720 5718 5716 5713 5711 5708 5705 5703 5700 5697 5695 5692 5689 5687 5684 5681 5678 5676 5674 5672 5670 5668 5666 5664
5735 5734 5733 5732 5730 5728 5727 5725 5723 5721 5719 5717 5714 5712 5709 5707 5704 5702 5700 5697 5694 5691 5689 5686 5683 5680 5678 5675 5673 5670 5667 5664 5662 5660 5658 5655 5654 5652
5724 5723 5722 5720 5719 5717 5715 5713 5712 5710 5708 5706 5704 5701 5698 5696 5693 5691 5688 5686 5683 5680 5678 5675 5672 5669 5666 5664 5662 5659 5656 5653 5650 5648 5645 5643 5641 5640
5712 5711 5710 5708 5707 5705 5703 5702 5700 5698 5697 5695 5693 5690 5687 5685 5682 5680 5677 5675 5672 5670 5667 5664 5661 5658 5655 5653 5650 5648 5645 5642 5639 5636 5633 5631 5629 5627
5700 5699 5698 5696 5695 5693 5692 5690 5689 5687 5686 5684 5681 5679 5676 5674 5671 5669 5666 5663 5661 5659 5656 5653 5650 5648 5645 5642 5639 5636 5634 5631 5628 5626 5623 5620 5617 5615